McCall, ID

7:18 PM MDT on October 16, 2017 (GMT -0600)
McCall

Weather History for KMYL - January, 2012

Change the Weather History Date:

Saturday, January 14, 2012

  Actual Average Record
Temperature  
Mean Temperature 27 °F 20 °F  
Max Temperature 39 °F 29 °F 48 °F (1973)
Min Temperature 14 °F 11 °F -15 °F (1930)
Degree Days  
Heating Degree Days 38 45  
Month to date heating degree days 575 639  
Since 1 July heating degree days 4076 4713  
Cooling Degree Days 0 0  
Month to date cooling degree days 0 0  
Year to date cooling degree days 0 0  
Moisture  
Dew Point 12 °F    
Average Humidity 56    
Maximum Humidity 80    
Minimum Humidity 32    
Precipitation  
Precipitation 0.00 in 0.06 in 0.70 in (1953)
Month to date precipitation 0.03 0.82  
Year to date precipitation 0.03 0.82  
Sea Level Pressure  
Sea Level Pressure 30.05 in    
Wind  
Wind Speed 5 mph (South)    
Max Wind Speed 18 mph    
Max Gust Speed 28 mph    
Visibility 10 miles    
Events      
T = Trace of Precipitation, MM = Missing Value Source: NWS Daily Summary

Daily Weather History Graph

Daily Weather History Graph

Search for Another Location

Airport or City:

Trip Planner

Search our weather history database for the weather conditions in past years. The results will help you decide how hot, cold, wet, or windy it might be!

Date:

Astronomy

Jan. 14, 2012 Rise Set
Actual Time 8:19 AM MST 5:27 PM MST
Civil Twilight 7:46 AM MST 6:00 PM MST
Nautical Twilight 7:10 AM MST 6:36 PM MST
Astronomical Twilight 6:35 AM MST 7:11 PM MST
Moon No Moon Rise 10:49 AM MST (1/14)
Length of Visible Light 10h 13m
Length of Day
9h 08m
Waning Gibbous, 68% of the Moon is Illuminated
Jan 14
Waning Gibbous
Jan 16
Last Quarter
Jan 23
New
Jan 30
First Quarter
Feb 7
Full

Hourly Weather History & Observations

Time (MST) Temp. Windchill Dew Point Humidity Pressure Visibility Wind Dir Wind Speed Gust Speed Precip Events Conditions
12:51 AM 21.9 °F - 14.0 °F 72% 30.30 in 10.0 mi Calm Calm - N/A   Clear
1:51 AM 19.9 °F - 12.9 °F 74% 30.27 in 10.0 mi Calm Calm - N/A   Clear
2:51 AM 19.9 °F - 12.9 °F 74% 30.25 in 10.0 mi Calm Calm - N/A   Clear
3:51 AM 19.0 °F - 12.0 °F 74% 30.22 in 7.0 mi Calm Calm - N/A   Clear
4:51 AM 17.1 °F - 10.9 °F 77% 30.20 in 10.0 mi Calm Calm - N/A   Clear
5:51 AM 16.0 °F - 10.9 °F 81% 30.19 in 10.0 mi Calm Calm - N/A   Clear
6:51 AM 16.0 °F - 10.9 °F 81% 30.19 in 10.0 mi Calm Calm - N/A   Clear
8:51 AM 18.0 °F - 10.9 °F 74% 30.16 in 10.0 mi Calm Calm - N/A   Clear
9:51 AM 21.0 °F - 14.0 °F 74% 30.15 in 6.0 mi Calm Calm - N/A   Haze
10:51 AM 25.0 °F - 16.0 °F 69% 30.13 in 9.0 mi Calm Calm - N/A   Clear
11:51 AM 30.9 °F - 10.9 °F 43% 30.09 in 10.0 mi Calm Calm - N/A   Clear
12:51 PM 34.0 °F 29.8 °F 10.0 °F 37% 30.06 in 10.0 mi SW 4.6 mph - N/A   Clear
1:51 PM 36.0 °F 29.0 °F 14.0 °F 41% 30.02 in 10.0 mi South 9.2 mph - N/A   Partly Cloudy
2:51 PM 37.0 °F 28.9 °F 12.0 °F 36% 29.99 in 10.0 mi South 12.7 mph - N/A   Overcast
3:51 PM 37.9 °F 30.9 °F 12.0 °F 35% 29.96 in 10.0 mi SSE 10.4 mph - N/A   Overcast
4:51 PM 37.9 °F 30.9 °F 12.0 °F 35% 29.95 in 10.0 mi South 10.4 mph 18.4 mph N/A   Mostly Cloudy
5:51 PM 37.0 °F 29.8 °F 10.9 °F 34% 29.93 in 10.0 mi SSE 10.4 mph - N/A   Clear
6:51 PM 37.0 °F 30.4 °F 10.9 °F 34% 29.90 in 10.0 mi SE 9.2 mph - N/A   Clear
7:51 PM 34.0 °F 28.0 °F 10.9 °F 38% 29.89 in 10.0 mi South 6.9 mph - N/A   Clear
8:51 PM 35.1 °F 25.2 °F 12.9 °F 40% 29.86 in 10.0 mi South 16.1 mph - N/A   Clear
9:51 PM 35.1 °F 24.8 °F 14.0 °F 42% 29.84 in 10.0 mi South 17.3 mph - N/A   Clear
10:51 PM 34.0 °F 26.0 °F 12.9 °F 42% 29.82 in 10.0 mi South 10.4 mph - N/A   Clear
11:51 PM 35.1 °F 26.9 °F 12.9 °F 40% 29.81 in 10.0 mi SSW 11.5 mph - N/A   Clear